Location: ?????-??????????
(52.0167°N, 54.5000°E)
Time: 06:00:58
(UTC+00:00)

Daily predictions for brighter satellites

Satellite Brightness Start Highest point End
(mag) Time Altitude Azimuth Time Altitude Azimuth Time Altitude Azimuth
CZ-4C R/B 2.9 13:13:46 10° NW 13:20:36 71° NE 13:28:37 10° SE
Cosmos 1898 Rocket 3.8 13:17:56 10° SSW 13:23:16 77° WNW 13:28:36 10° NNE
Okean 1-7 Rocket 3.6 13:20:03 10° S 13:24:23 61° E 13:28:46 10° NNE
Cosmos 1833 4.3 13:20:16 10° SSW 13:25:56 69° ESE 13:31:40 10° NE
Cosmos 1340 Rocket 3.7 13:23:02 10° N 13:26:26 27° ENE 13:29:50 10° SE
Cosmos 2333 4.4 13:21:48 10° NNW 13:27:35 81° WSW 13:33:15 10° SSE
Cosmos 2058 Rocket 3.0 13:23:40 10° N 13:28:04 86° ENE 13:32:27 10° S
AQUARIUS 4.1 13:24:36 10° SSE 13:29:04 67° ENE 13:33:33 10° N
Cosmos 2322 4.1 13:23:36 10° NW 13:29:16 71° WSW 13:34:54 10° SSE
PSLV R/B 4.2 13:25:20 10° NNE 13:29:18 49° E 13:33:16 10° S
Cosmos 1937 Rocket 3.6 13:26:02 10° SSW 13:31:18 87° WNW 13:36:39 10° NNE
NOAA 12 4.2 13:26:26 10° SE 13:31:32 56° ENE 13:36:41 10° N
Alouette 2 Rocket 4.1 13:28:15 10° N 13:32:36 65° ENE 13:39:05 10° SSE
KORONAS-FOTON 3.8 13:28:57 10° S 13:32:41 63° E 13:36:27 10° NNE
Cosmos 2150 Rocket 4.4 13:27:55 10° S 13:32:47 43° ESE 13:37:38 10° NE
IRS-1C Rocket 4.1 13:28:42 10° SSE 13:33:58 81° ENE 13:39:15 10° NNW
Cosmos 1455 4.1 13:33:19 10° NE 13:34:44 12° ENE 13:36:09 10° E
Cosmos 1461 3.3 13:30:45 10° NW 13:35:02 74° SW 13:39:29 10° SSE
Nadezhda 3 Rocket 4.2 13:29:29 10° N 13:35:33 49° ENE 13:41:39 10° SSE
CORIOLIS 4.1 13:30:28 10° SSE 13:35:49 74° ENE 13:41:12 10° NNW
Cosmos 1271 Rocket 3.2 13:33:07 10° SSE 13:36:34 37° E 13:40:04 10° NNE
SL-14 R/B 4.1 13:33:22 10° SSE 13:36:55 31° E 13:40:27 10° NNE
Cosmos 1980 4.0 13:31:43 10° NNW 13:37:12 45° NE 13:42:39 10° ESE
Cosmos 1242 Rocket 3.4 13:35:26 10° SSE 13:38:31 30° E 13:41:40 10° NNE
Cosmos 1602 Rocket 4.4 13:36:08 10° SSE 13:39:57 29° E 13:43:45 10° NNE
Cosmos 2297 Rocket 3.9 13:37:52 10° ESE 13:40:25 13° E 13:42:50 10° ENE
Cosmos 1626 3.0 13:37:27 10° SSE 13:40:40 29° E 13:43:56 10° NNE
Cosmos 2360 Rocket 4.0 13:35:57 10° NW 13:41:07 37° WSW 13:46:14 10° S
COBE Rocket 4.1 13:36:22 10° NNE 13:41:31 89° ESE 13:46:42 10° SSW
YAOGAN 6 3.1 13:40:27 10° SE 13:43:54 38° ENE 13:47:21 10° N
NOSS 0 Rocket 3.9 13:38:35 10° NNW 13:44:50 67° NE 13:51:00 10° SE
Starlink AR 3.9 13:43:10 10° SSW 13:45:18 25° SSE 13:47:08 12° E
Helios 1A Rocket 4.5 13:41:37 10° S 13:45:26 40° W 13:49:17 10° NNW
NOSS 2-1 (E) 4.5 13:41:05 10° NW 13:45:43 45° NE 13:52:01 10° ESE
COSMO-SKYMED 1 3.7 13:42:37 10° NE 13:46:14 25° E 13:49:48 10° SSE
COSMOS 2487 3.6 13:44:35 10° SW 13:47:53 40° WNW 13:51:14 10° NNE
Cosmos 2219 Rocket 2.4 13:43:22 10° NNW 13:49:06 80° WSW 13:54:45 10° SSE
Cosmos 1125 Rocket 4.1 13:44:50 10° SSE 13:49:31 35° ESE 13:54:13 10° NE
Timation 2 Rocket 4.3 13:44:17 10° S 13:50:04 47° ESE 13:56:07 10° NE
COSMOS 2428 2.9 13:45:04 10° NNW 13:50:51 80° WSW 13:56:35 10° SSE
Cosmos 1939 Rocket 4.0 13:49:07 10° ESE 13:52:07 21° ENE 13:55:09 10° NNE
Cosmos 2227 Rocket 3.8 13:49:19 10° SE 13:52:24 15° E 13:54:21 13° ENE
Okean-O 2.6 13:52:46 10° SSE 13:57:11 71° ENE 14:01:37 10° N
H-2A R/B 3.6 13:54:43 10° S 13:58:29 56° W 14:02:20 10° NNW
Okean O Rocket 4.0 13:56:27 10° SSW 14:00:14 27° W 14:04:03 10° NW
Starlink AQ 3.7 13:58:37 10° SW 14:01:19 35° SSE 14:03:01 18° E
ADEOS Rocket 4.4 13:57:05 10° NE 14:01:32 19° E 14:06:13 10° SE
Envisat 3.0 13:56:56 10° SSE 14:02:01 87° ENE 14:07:09 10° NNW
Cosmos 1626 Rocket 3.6 13:58:25 10° S 14:02:41 59° E 14:06:57 10° NNE
TIMED 4.4 13:58:37 10° NNW 14:03:00 69° ENE 14:07:22 10° SSE
Starlink AS 3.6 14:00:57 10° SW 14:03:41 36° SSE 14:05:17 19° E
Cosmos 1269 Rocket 4.1 13:58:35 10° NNW 14:03:50 58° ENE 14:09:01 10° SE
Starlink BA 3.6 14:01:11 10° SW 14:03:55 36° SSE 14:05:31 19° E
Starlink AU 3.6 14:01:25 10° SW 14:04:08 36° SSE 14:05:44 20° E
Starlink AT 3.6 14:01:38 10° SW 14:04:21 37° SSE 14:05:57 20° E
ATLAS CENTAUR R/B 2.8 14:01:08 10° NNW 14:04:28 21° NNE 14:06:13 17° NE
Starlink BB 3.6 14:01:52 10° SW 14:04:35 37° SSE 14:06:10 20° E
Starlink BC 3.6 14:02:05 10° SW 14:04:48 37° SSE 14:06:23 20° E
Starlink BK 3.6 14:02:19 10° SW 14:05:02 37° SSE 14:06:36 20° E
Starlink AY 3.6 14:02:32 10° SW 14:05:16 37° SSE 14:06:49 20° E
Starlink AW 3.6 14:02:46 10° SW 14:05:29 37° SSE 14:07:03 20° E
Starlink BJ 3.6 14:03:00 10° SW 14:05:45 37° SSE 14:07:17 20° E
Starlink AV 3.6 14:03:14 10° SW 14:05:59 37° SSE 14:07:31 21° E
Starlink BD 3.6 14:03:27 10° SW 14:06:12 38° SSE 14:07:43 21° E
Starlink BE 3.5 14:03:39 10° SW 14:06:24 38° SSE 14:07:55 21° E
Cosmos 1048 Rocket 4.3 14:01:21 10° NNW 14:06:30 71° WSW 14:11:35 10° SSE
Starlink BM 3.5 14:03:55 10° SW 14:06:40 38° SSE 14:08:10 21° E
Starlink AX 3.5 14:04:09 10° SW 14:06:53 38° SSE 14:08:23 21° E
Starlink BH 3.5 14:04:22 10° SW 14:07:06 38° SSE 14:08:36 21° E
Starlink AZ 3.5 14:04:36 10° SW 14:07:20 38° SSE 14:08:49 21° E
Starlink BG 3.5 14:04:48 10° SW 14:07:34 38° SSE 14:09:02 21° E
Starlink BF 3.5 14:05:03 10° SW 14:07:47 38° SSE 14:09:16 22° E
Cosmos 1607 4.0 14:01:50 10° SSW 14:07:50 61° SE 14:13:10 14° NE
Starlink BL 3.5 14:05:16 10° SW 14:08:01 39° SSE 14:09:29 22° E
Starlink AH 3.5 14:05:31 10° SW 14:08:16 39° SSE 14:09:44 22° E
Starlink AC 3.5 14:05:45 10° SW 14:08:31 39° SSE 14:09:57 22° E
Starlink X 3.5 14:05:59 10° SW 14:08:44 39° SSE 14:10:11 22° E
Starlink AE 3.5 14:06:10 10° SW 14:08:56 39° SSE 14:10:23 22° E
Starlink Z 3.5 14:06:26 10° SW 14:09:12 39° SSE 14:10:38 22° E
Starlink AK 3.5 14:06:39 10° SW 14:09:25 39° SSE 14:10:50 22° E
Starlink AL 3.5 14:06:53 10° SW 14:09:39 40° SSE 14:11:03 23° E
Starlink AD 3.5 14:07:08 10° SW 14:09:54 40° SSE 14:11:18 23° E
Starlink Y 3.5 14:07:35 10° SW 14:10:21 40° SSE 14:11:45 23° E
Starlink AG 3.5 14:07:49 10° SW 14:10:35 40° SSE 14:11:58 23° E
Starlink W 3.4 14:08:01 10° SW 14:10:48 40° SSE 14:12:11 23° E
Starlink AJ 3.4 14:08:17 10° SW 14:11:04 40° SSE 14:12:26 23° E
Starlink AM 3.4 14:08:43 10° SW 14:11:30 41° SSE 14:12:51 24° E
Starlink AP 3.4 14:08:57 10° SW 14:11:45 41° SSE 14:13:05 24° E
Starlink AA 3.4 14:09:10 10° SW 14:11:57 41° SSE 14:13:17 24° E
Starlink AF 3.4 14:09:24 10° SW 14:12:10 41° SSE 14:13:30 24° E
Starlink AB 3.4 14:09:38 10° SW 14:12:24 41° SSE 14:13:43 24° E
Starlink AN 3.4 14:09:49 10° SW 14:12:36 41° SSE 14:13:55 24° E
Cosmos 372 Rocket 4.0 14:09:54 10° SSW 14:15:02 86° WNW 14:20:16 10° NNE
CZ-4 R/B 1.4 14:14:56 10° SSE 14:18:55 62° ENE 14:23:01 10° N
CZ-4 R/B 4.3 14:16:38 10° SSE 14:20:45 72° ENE 14:24:52 10° N
Starlink T 3.2 14:18:36 10° SW 14:21:26 47° SSE 14:22:25 31° ESE
Cosmos 1825 Rocket 4.2 14:18:46 10° SSE 14:22:36 31° E 14:25:03 18° NE
Starlink N 3.2 14:19:48 10° SW 14:22:39 48° SSE 14:23:36 32° ESE
Starlink Q 3.1 14:21:20 10° SW 14:24:11 49° SSE 14:25:05 34° ESE
SJ 16-02 3.5 14:20:39 10° WSW 14:24:14 23° NW 14:27:50 10° N
USA 267 3.3 14:19:22 17° ENE 14:24:31 75° NNW 14:31:03 10° WSW
Starlink P 3.1 14:22:39 10° SW 14:25:30 50° SSE 14:26:21 35° ESE
Meteor 2-10 Rocket 3.9 14:20:56 10° N 14:26:07 43° ENE 14:31:05 10° SE
Starlink U 3.1 14:23:57 10° SW 14:26:49 51° SSE 14:27:38 36° ESE
Starlink B 3.1 14:25:18 10° SW 14:28:10 52° SSE 14:28:56 38° ESE
CSL-04 Debris 4.1 14:23:27 10° SSE 14:28:47 65° ENE 14:34:09 10° N
Cosmos 2082 Rocket 4.4 14:29:29 10° NW 14:32:17 14° NNW 14:35:06 10° N
Starlink D 3.0 14:30:38 10° WSW 14:33:32 56° SSE 14:34:09 44° ESE
Cosmos 2218 Rocket 4.5 14:27:57 10° SSE 14:33:40 37° E 14:39:27 10° NNE
Starlink S 2.9 14:30:47 10° WSW 14:33:41 56° SSE 14:34:15 45° ESE
Cosmos 2184 Rocket 4.4 14:27:58 10° SSW 14:34:04 63° WNW 14:40:13 10° N
SKYMED 2 3.5 14:30:10 10° NNE 14:34:32 68° ESE 14:38:51 10° S
Starlink C 2.9 14:33:23 10° WSW 14:36:19 58° SSE 14:36:49 48° ESE
Starlink E 2.9 14:34:49 10° WSW 14:37:45 59° SSE 14:38:12 50° ESE
Starlink J 2.8 14:36:14 10° WSW 14:39:10 60° SSE 14:39:35 53° ESE
Cosmos 2333 Rocket 3.9 14:34:16 10° NW 14:39:25 35° WSW 14:44:31 10° S
Cosmos 2237 Rocket 2.2 14:33:48 10° NNW 14:39:28 83° WSW 14:45:06 10° SSE
Starlink V 2.8 14:37:38 10° WSW 14:40:34 61° SSE 14:40:56 55° ESE
Cosmos 2154 Rocket 4.1 14:35:43 10° SSW 14:42:00 82° W 14:48:18 10° N
Starlink H 2.8 14:39:04 10° WSW 14:42:01 63° SSE 14:42:19 57° ESE
Starlink F 2.7 14:39:20 10° WSW 14:42:15 63° SSE 14:42:32 58° SE
Cosmos 494 Rocket 4.5 14:37:54 10° NNW 14:42:57 61° WSW 14:47:59 10° S
Starlink G 2.7 14:41:56 10° WSW 14:44:53 65° SSE 14:45:05 62° SE
Ariane Rocket 3.3 14:40:41 10° SE 14:45:27 43° ENE 14:50:15 10° N
NOSS 2-1 (C) 4.2 14:41:06 10° NW 14:46:05 89° NE 14:53:06 10° SE
Starlink L 2.7 14:43:21 10° WSW 14:46:19 66° SSE 14:46:29 64° SE
ERBS 4.1 14:44:23 10° S 14:46:08 19° SSE 14:46:08 19° SSE
Cosmos 1812 Rocket 4.5 14:42:43 10° NNW 14:47:04 52° W 14:51:25 10° S
Starlink A 2.7 14:44:48 10° WSW 14:47:46 67° SSE 14:47:52 66° SE
USA 116 4.1 14:49:18 34° SE 14:49:18 34° SE 14:51:26 10° S
Starlink R 2.7 14:46:15 10° WSW 14:49:13 68° SSE 14:49:16 68° SSE
NOSS 2-1 (D) 4.3 14:44:53 10° NW 14:49:54 87° SW 14:56:58 10° SE
CZ-2D R/B 3.1 14:46:32 10° SSE 14:50:20 75° ENE 14:54:13 10° N
Starlink K 2.7 14:47:40 10° WSW 14:50:38 69° SSE 14:50:38 69° SSE
Starlink M 2.7 14:49:04 10° WSW 14:51:59 70° S 14:51:59 70° S
Meteor 1-21 Rocket 4.1 14:46:36 10° S 14:52:08 66° E 14:57:48 10° NNE
H-2A R/B 2.9 14:53:56 29° NE 14:53:56 29° NE 14:57:34 10° N
CSL-04 Rocket 3.8 14:52:00 10° SSE 14:57:30 81° WSW 15:03:06 10° NNW
YAOGAN 1 2.8 14:53:40 10° S 14:57:59 71° WSW 15:02:20 10° NNW
SL-16 R/B 2.1 14:54:29 10° NNW 15:00:10 64° NE 15:03:18 27° SE
Cosmos 1959 Rocket 4.5 14:54:47 10° SSE 15:00:45 54° E 15:06:43 10° NNE
Cosmos 2251 Rocket 3.6 14:56:02 10° NNW 15:01:14 54° ENE 15:03:02 37° ESE
Cosmos-2242 3.0 14:59:47 10° NNW 15:04:10 81° W 15:08:28 10° S
ATLAS 5 CENTAUR R/B 3.0 15:01:16 10° W 15:05:25 34° NNW 15:07:38 23° NNE
Cosmos 2219 3.1 15:02:16 10° SSW 15:07:52 74° ESE 15:10:29 33° NE
DMSP B5D1-3 4.4 15:05:33 26° NNE 15:08:21 61° ESE 15:13:23 10° S
CZ-4C R/B 4.2 15:02:28 10° NW 15:09:08 42° WSW 15:16:38 10° S
USA 32 4.2 15:04:42 10° SSW 15:09:56 74° W 15:15:11 10° N
CZ-2C R/B 4.0 15:11:04 32° NE 15:11:04 32° NE 15:14:59 10° N
Cosmos 2366 rocket 3.9 15:04:34 10° S 15:10:39 61° E 15:16:52 10° NNE
Cosmos 1455 2.1 15:07:08 10° NNW 15:11:00 86° W 15:14:48 10° S
Cosmos 2082 4.4 15:06:46 10° S 15:10:46 33° SE 15:10:46 33° SE
Cosmos 1626 4.2 15:12:46 10° SW 15:15:57 26° WNW 15:19:09 10° N
COSMO-SKYMED 1 3.6 15:18:26 10° N 15:22:35 44° WNW 15:26:43 10° SW
Cosmos 2297 Rocket 2.1 15:17:48 10° SSW 15:23:25 70° ESE 15:24:42 52° NE
Cosmos 1939 Rocket 3.8 15:23:01 10° S 15:26:47 46° W 15:30:38 10° NNW
ATLAS CENTAUR R/B 4.4 15:20:03 10° W 15:26:54 73° NNW 15:36:36 30° ENE
Cosmos 1953 Rocket 3.5 15:24:36 10° S 15:29:07 87° WNW 15:29:34 72° N
Cosmos 1727 Rocket 3.8 15:25:36 10° N 15:31:51 84° E 15:38:02 10° S
Cosmos 1758 Rocket 4.4 15:30:17 10° SSW 15:34:28 49° WNW 15:37:05 21° N
Cosmos 2227 Rocket 2.0 15:29:53 10° SSW 15:35:31 78° ESE 15:36:14 67° ENE
SJ-11-01 4.2 15:38:53 86° NW 15:38:53 86° NW 15:43:34 10° NNW
ATLAS CENTAUR R/B 2.7 15:39:58 10° NW 15:42:25 33° NNW 15:42:25 33° NNW
ADEOS Rocket 3.1 15:41:46 12° NNE 15:47:50 83° ESE 15:54:57 10° SSW
SL-8 Rocket 4.4 15:41:51 10° SSW 15:48:06 64° WNW 15:54:23 10° N
Cosmos 1943 4.2 15:44:07 10° NNW 15:47:45 33° N 15:47:45 33° N
ARGOS 3.7 15:55:09 48° N 15:55:09 48° N 15:59:01 10° NNW
CZ-4 R/B 4.4 15:51:45 10° SW 15:54:23 17° W 15:57:02 10° NW
ATLAS 5 CENTAUR R/B 3.3 15:52:30 10° NW 15:56:47 77° NE 15:58:47 55° ESE
USA 267 3.4 16:06:42 56° NNE 16:07:15 58° N 16:13:38 10° WNW
H-2A R/B 3.6 16:34:32 30° NW 16:34:32 30° NW 16:37:20 10° NNW
SL-16 R/B 4.0 16:39:11 10° NW 16:43:53 27° WSW 16:45:16 25° SW
ATLAS 5 CENTAUR R/B 4.2 16:47:30 10° NW 16:49:11 18° NW 16:49:11 18° NW
Cosmos 2297 Rocket 4.0 17:03:02 10° WSW 17:06:33 27° WNW 17:06:33 27° WNW
Cosmos 2227 Rocket 4.3 17:15:22 10° W 17:18:06 22° WNW 17:18:06 22° WNW
ATLAS 3B R/B 4.1 23:46:29 30° NE 23:46:29 30° NE 23:51:06 10° ENE
